[[{"header":{"parameterUnit":"m.s-1","parameterCategory":1,"la1":30.2991,"la2":30.254,"lo1":-89.0895,"lo2":-89.0444,"dy":0.0017,"dx":0.0017,"nx":28,"ny":28,"refTime":"2023-07-29T09:00:00:Z","depth":0,"parameterNumber":2,"parameterNumberName":"U-component_of_WINDS"},"data":[0,0,0,0,0,0,0,0,0,0,0,0,0,0,0,0,0,0,0,0,0,0,0,0,0,0,0,0,0,0,0,0,0,0,0,0,0,0,0,0,0,0,0,0,0,0,0,0,0,0,0,0,0,0,0,0,0,0,1.7106,1.7108,0,1.7249,1.725,1.7252,1.7279,1.7278,1.7276,1.7275,1.7425,1.743,1.7435,0,0,0,0,0,0,0,0,0,0,0,0,0,1.6861,1.6866,1.7106,1.7108,1.711,1.7248,1.725,1.7252,1.7279,1.7278,1.7276,1.7275,1.7424,1.743,1.7436,0,0,0,0,0,0,0,0,0,0,0,0,0,1.6982,1.6867,1.7106,1.714,1.7144,1.7248,1.725,1.7253,1.7279,1.7277,1.7276,1.7274,1.7422,1.7429,1.7437,1.7518,0,0,1.746,1.7463,0,0,0,0,0,0,0,0,1.6975,1.6991,1.7133,1.7138,1.7143,1.7244,1.7219,1.7342,1.728,1.7228,1.7275,1.7273,1.7367,1.7379,1.7409,1.7525,1.7532,1.7461,1.7465,1.7468,1.7471,0,0,0,0,0,0,0,1.6967,1.6985,1.7163,1.7135,1.7141,1.7149,1.7164,1.7242,1.7306,1.7232,1.7235,1.7251,1.7369,1.7402,1.7413,1.7534,1.746,1.7467,1.7472,1.7475,1.7724,1.7726,0,0,0,0,0,0,1.6952,1.6978,1.7158,1.7167,1.7053,1.7155,1.7172,1.7213,1.7305,1.7317,1.7252,1.7252,1.739,1.7404,1.7419,1.752,1.7468,1.7476,1.748,1.7722,1.7724,1.7727,0,0,0,0,0,0,1.6947,1.6968,1.7153,1.7073,1.7097,1.7161,1.7207,1.7217,1.725,1.732,1.7331,1.7274,1.7389,1.7408,1.7493,1.7526,1.7479,1.7486,1.772,1.7723,1.7726,1.7724,0,0,0,0,0,0,1.694,1.6966,1.6997,1.7074,1.7101,1.7223,1.7209,1.7221,1.7262,1.7263,1.7343,1.7355,1.7389,1.7481,1.75,1.7535,1.7492,1.7717,1.7721,1.7725,1.7721,1.7726,1.7731,0,0,0,0,0,1.6931,1.6991,1.6998,1.702,1.7141,1.7225,1.7241,1.7278,1.7265,1.7297,1.7342,1.7352,1.7519,1.749,1.7512,1.7549,1.7715,1.772,1.7724,1.7719,1.7725,1.7731,0,0,0,0,0,0,1.6918,1.7002,1.701,1.7097,1.7154,1.7229,1.7271,1.7284,1.7346,1.7344,1.7389,1.7407,1.7489,1.7528,1.7494,1.7633,1.7616,1.7625,1.7605,1.7612,1.7616,1.7606,1.7498,0,0,0,0,0,1.6925,1.6985,1.7056,1.7126,1.7154,1.7207,1.7245,1.7269,1.733,1.7354,1.7405,1.7465,1.7531,1.7573,1.7638,1.7727,1.7745,1.7763,1.7768,1.7772,1.7779,1.783,1.7839,1.7742,1.7742,1.7742,0,0,1.6941,1.6994,1.703,1.7125,1.7171,1.7233,1.7227,1.7294,1.7341,1.7365,1.7448,1.7487,1.7557,1.7644,1.7685,1.7679,1.781,1.7778,1.778,1.7786,1.7835,1.7845,1.7853,1.7745,1.7744,1.7744,0,0,1.7002,1.7047,1.7111,1.7157,1.7227,1.7262,1.7277,1.7351,1.7378,1.7461,1.7481,1.7538,1.765,1.7699,1.7738,1.7817,1.7829,1.7836,1.7862,1.791,1.7918,1.7925,1.7953,1.7963,1.7844,1.7844,1.7844,0,1.7013,1.7106,1.7142,1.7208,1.7249,1.7272,1.7337,1.7381,1.7468,1.7497,1.7488,1.7629,1.7678,1.7777,1.7796,1.7827,1.7846,1.7828,1.7914,1.7921,1.7928,1.7956,1.7966,1.7844,1.7844,1.7844,1.7844,0,1.7117,1.7181,1.7224,1.7307,1.7353,1.7418,1.7465,1.7508,1.7527,1.7564,1.7649,1.7708,1.7784,1.7809,1.7829,1.7912,1.7905,1.7905,1.7889,1.7937,1.7964,1.7975,1.7845,1.7845,1.7845,1.7844,0,0,1.7174,1.7275,1.729,1.7328,1.7406,1.7458,1.7524,1.7597,1.7633,1.7693,1.775,1.7844,1.7843,1.7888,1.7914,1.7956,1.8015,1.7951,1.7953,1.7961,1.811,1.811,1.8121,1.8023,1.8025,1.8027,1.8104,0,1.7245,1.7362,1.7396,1.7496,1.7556,1.7578,1.7636,1.7691,1.7727,1.7784,1.7824,1.789,1.7884,1.7911,1.7954,1.7999,1.8045,1.7993,1.8078,1.808,1.806,1.8135,1.8136,1.8206,1.8114,1.8116,1.8117,0,1.7343,1.7403,1.7507,1.7578,1.7604,1.7655,1.7725,1.7779,1.7842,1.7865,1.7915,1.7936,1.8007,1.7987,1.8086,1.8049,1.8086,1.8113,1.8117,1.8127,1.8102,1.8148,1.8229,1.8239,1.8134,1.8133,1.8132,0,1.7375,1.7482,1.7558,1.759,1.7673,1.7709,1.7746,1.7806,1.7848,1.791,1.7937,1.8007,1.8045,1.8099,1.8139,1.812,1.8235,1.8217,1.8257,1.8256,1.828,1.8278,1.8369,1.8303,1.8303,1.8302,1.8302,0,1.745,1.7514,1.7573,1.7621,1.7693,1.7732,1.7802,1.784,1.7894,1.795,1.7973,1.8025,1.8075,1.8134,1.8166,1.8243,1.826,1.8282,1.829,1.828,1.8277,1.8305,1.8301,1.8305,1.8305,1.8304,1.8304,0,1.7498,1.7541,1.7626,1.7697,1.7717,1.7767,1.7829,1.7876,1.7912,1.7982,1.8001,1.8058,1.8129,1.8174,1.8264,1.8285,1.837,1.8376,1.8348,1.8352,1.8389,1.8385,1.8501,1.8518,1.844,1.8441,1.8441,0,1.7544,1.7593,1.7669,1.7708,1.7744,1.7806,1.7848,1.7889,1.7932,1.8007,1.8045,1.8117,1.8176,1.8288,1.8338,1.8407,1.8416,1.8452,1.8427,1.8415,1.8417,1.8413,1.8419,1.8456,1.8457,1.8457,1.8458,0,1.762,1.7639,1.7698,1.7765,1.7814,1.7869,1.7924,1.7955,1.8005,1.8052,1.8124,1.817,1.8261,1.8332,1.8405,1.8445,1.846,1.8465,1.8478,1.8469,1.845,1.8461,1.836,1.8462,1.8462,1.8461,1.8461,1.8461,1.7669,1.7714,1.7774,1.784,1.7885,1.7936,1.7983,1.8024,1.8084,1.8161,1.8181,1.8256,1.8318,1.8418,1.8458,1.8518,1.8513,1.8532,1.8537,1.8541,1.8541,1.844,1.8531,1.8531,1.8531,1.8531,1.8531,0,1.7747,1.7787,1.7846,1.7922,1.7973,1.7981,1.8043,1.8086,1.8151,1.8206,1.8264,1.8346,1.8415,1.847,1.8541,1.8578,1.8587,1.8596,1.8594,1.8602,1.8541,1.8523,1.8587,1.8587,1.8587,1.8587,1.8587,1.8587,1.7794,1.7869,1.7895,1.7993,1.8033,1.8106,1.814,1.8187,1.8231,1.8321,1.8378,1.8413,1.8469,1.8544,1.8608,1.8622,1.8648,1.8655,1.8671,1.8613,1.8607,1.8601,1.8584,1.866,1.866,1.8727,1.8728,1.8728]},{"header":{"parameterUnit":"m.s-1","parameterCategory":1,"la1":30.2991,"la2":30.254,"lo1":-89.0895,"lo2":-89.0444,"dy":0.0017,"dx":0.0017,"nx":28,"ny":28,"refTime":"2023-07-29T09:00:00:Z","depth":0,"parameterNumber":3,"parameterNumberName":"V-component_of_WINDS"},"data":[0,0,0,0,0,0,0,0,0,0,0,0,0,0,0,0,0,0,0,0,0,0,0,0,0,0,0,0,0,0,0,0,0,0,0,0,0,0,0,0,0,0,0,0,0,0,0,0,0,0,0,0,0,0,0,0,0,0,2.8586,2.8586,0,2.8556,2.8556,2.8555,2.8559,2.856,2.856,2.8561,2.8526,2.8525,2.8523,0,0,0,0,0,0,0,0,0,0,0,0,0,2.8642,2.8641,2.8586,2.8586,2.8586,2.8556,2.8556,2.8555,2.8559,2.856,2.856,2.8561,2.8527,2.8525,2.8523,0,0,0,0,0,0,0,0,0,0,0,0,0,2.8615,2.864,2.8586,2.8584,2.8583,2.8556,2.8556,2.8555,2.8559,2.856,2.856,2.8561,2.8527,2.8525,2.8523,2.8495,0,0,2.8517,2.8516,0,0,0,0,0,0,0,0,2.8617,2.8613,2.8585,2.8584,2.8583,2.8562,2.8563,2.8535,2.8559,2.8568,2.8561,2.8561,2.8537,2.8534,2.8527,2.8494,2.8492,2.8517,2.8515,2.8514,2.8514,0,0,0,0,0,0,0,2.8618,2.8614,2.8574,2.8584,2.8583,2.8583,2.858,2.8557,2.8549,2.8567,2.8568,2.8564,2.8537,2.8529,2.8526,2.8492,2.8517,2.8515,2.8513,2.8513,2.843,2.8429,0,0,0,0,0,0,2.8622,2.8616,2.8575,2.8573,2.8602,2.8581,2.8578,2.8568,2.8549,2.8547,2.8564,2.8564,2.8532,2.8529,2.8525,2.8489,2.8514,2.8512,2.8511,2.8431,2.843,2.8429,0,0,0,0,0,0,2.8623,2.8618,2.8576,2.8595,2.8589,2.8579,2.8569,2.8567,2.8559,2.8546,2.8544,2.8557,2.8533,2.8528,2.8502,2.8488,2.8512,2.851,2.8432,2.8431,2.843,2.8418,0,0,0,0,0,0,2.8624,2.8618,2.8609,2.8594,2.8588,2.8556,2.8568,2.8566,2.8556,2.8557,2.854,2.8538,2.8533,2.8505,2.85,2.8485,2.8508,2.8434,2.8432,2.843,2.8419,2.8416,2.8413,0,0,0,0,0,2.8626,2.8607,2.8609,2.8604,2.8577,2.8555,2.8551,2.8547,2.8555,2.8544,2.8536,2.8538,2.849,2.8503,2.8497,2.8481,2.8434,2.8432,2.843,2.8421,2.8417,2.8413,0,0,0,0,0,0,2.8619,2.8605,2.8607,2.8582,2.857,2.8556,2.8542,2.8544,2.8528,2.8529,2.8524,2.852,2.8493,2.8485,2.8498,2.8451,2.8463,2.846,2.8458,2.8454,2.8451,2.8453,2.8506,0,0,0,0,0,2.8615,2.86,2.8588,2.8567,2.8561,2.8553,2.8543,2.8541,2.8527,2.8522,2.8511,2.8496,2.8478,2.8466,2.8448,2.8418,2.8413,2.8404,2.8401,2.8399,2.8396,2.8376,2.8371,2.8422,2.8422,2.8422,0,0,2.8606,2.8596,2.8587,2.8566,2.8556,2.8538,2.8548,2.853,2.8516,2.8519,2.8493,2.8485,2.8468,2.8439,2.8426,2.8431,2.838,2.8396,2.8395,2.8392,2.8373,2.8368,2.8364,2.8421,2.8421,2.8421,0,0,2.858,2.8572,2.8553,2.8543,2.8528,2.8522,2.8517,2.8502,2.8497,2.8472,2.8472,2.8455,2.8424,2.8411,2.84,2.8366,2.8367,2.8361,2.8344,2.8325,2.8321,2.8317,2.8302,2.8298,2.8358,2.8358,2.8358,0,2.857,2.8545,2.8543,2.8524,2.8513,2.8515,2.8494,2.8484,2.8463,2.8455,2.8461,2.842,2.8409,2.8376,2.8367,2.836,2.8352,2.8362,2.8322,2.8318,2.8315,2.8301,2.8295,2.8357,2.8357,2.8357,2.8357,0,2.8533,2.8515,2.8501,2.8482,2.8469,2.8449,2.8442,2.8429,2.8428,2.842,2.8393,2.8379,2.8357,2.835,2.8348,2.8315,2.8318,2.8324,2.8335,2.8309,2.8295,2.829,2.8356,2.8356,2.8356,2.8356,0,0,2.8502,2.848,2.8475,2.8465,2.8447,2.8433,2.8411,2.8391,2.8379,2.8364,2.8344,2.8317,2.8321,2.8309,2.8305,2.8289,2.8259,2.8295,2.8295,2.8287,2.8218,2.8212,2.8206,2.826,2.8259,2.8258,2.8218,0,2.8473,2.8437,2.8433,2.84,2.8382,2.8382,2.8363,2.8349,2.8341,2.8323,2.8314,2.8293,2.8302,2.8294,2.8277,2.8266,2.8244,2.8269,2.8238,2.8237,2.8241,2.82,2.8195,2.8158,2.8213,2.8212,2.8212,0,2.8434,2.8418,2.8383,2.8366,2.8358,2.8341,2.832,2.8304,2.8287,2.8282,2.8267,2.8265,2.824,2.8253,2.8217,2.8234,2.8221,2.8213,2.8211,2.8207,2.8222,2.8191,2.8147,2.814,2.8204,2.8204,2.8205,0,2.8412,2.8382,2.8356,2.8348,2.8328,2.8315,2.8306,2.829,2.8277,2.8258,2.8249,2.8227,2.8215,2.8197,2.8188,2.8199,2.8151,2.8164,2.8143,2.8143,2.8132,2.8133,2.8082,2.8127,2.8127,2.8128,2.8128,0,2.8378,2.8356,2.8346,2.833,2.8304,2.8299,2.8273,2.8264,2.8249,2.8229,2.8228,2.8209,2.82,2.8178,2.8171,2.814,2.8135,2.8128,2.8126,2.8127,2.8128,2.8117,2.8119,2.8126,2.8126,2.8127,2.8127,0,2.8349,2.8342,2.8314,2.8296,2.8291,2.8273,2.8257,2.824,2.8232,2.8207,2.82,2.8187,2.8161,2.8151,2.812,2.8115,2.8078,2.8079,2.8084,2.8083,2.8062,2.8063,2.8001,2.7991,2.8046,2.8045,2.8045,0,2.8328,2.8311,2.8291,2.8279,2.8269,2.8249,2.8235,2.8228,2.8214,2.8191,2.8176,2.8151,2.8131,2.809,2.8075,2.8051,2.8049,2.8029,2.8046,2.8046,2.8046,2.8046,2.8042,2.8026,2.8025,2.8025,2.8025,0,2.8289,2.8286,2.8267,2.8246,2.823,2.8213,2.8197,2.8186,2.8176,2.8159,2.8134,2.8118,2.8085,2.8059,2.8033,2.8021,2.8019,2.802,2.8013,2.8013,2.8015,2.8011,2.8074,2.8021,2.8021,2.8021,2.8022,2.8022,2.8261,2.8245,2.8228,2.8207,2.8193,2.8177,2.816,2.8149,2.8128,2.8102,2.8099,2.807,2.805,2.8015,2.8002,2.7977,2.7982,2.7973,2.7971,2.7968,2.7965,2.8021,2.7973,2.7973,2.7973,2.7973,2.7973,0,2.822,2.8209,2.819,2.8166,2.8148,2.8151,2.8131,2.8115,2.8091,2.8073,2.8053,2.8021,2.7995,2.7978,2.7951,2.7935,2.7933,2.7928,2.7928,2.7924,2.7964,2.7971,2.7929,2.7929,2.7929,2.7929,2.7929,2.7929,2.8197,2.8169,2.8163,2.8127,2.8115,2.8089,2.8077,2.8061,2.8046,2.8012,2.799,2.798,2.7961,2.7932,2.7907,2.7902,2.7891,2.7885,2.788,2.7917,2.7922,2.7926,2.7933,2.7883,2.7883,2.7842,2.7841,2.7841]}]]